| time (UTC) | temp C | wind direction | speed KPH | gust KPH | rain 1hr cm | rain 24hr cm | rain mn cm | humidity % | barometer mb |
| 20260906101107 | 21 | 298 | 3.2 | 24.1 | 0.00 | 0.00 | 0.00 | 45 | 1026.4 |
| 20260906100608 | 23 | 2 | 4.8 | 17.7 | 0.00 | 0.00 | 0.00 | 43 | 1026.3 |
| 20260906100107 | 23 | 6 | 4.8 | 16.1 | 0.00 | 0.00 | 0.00 | 43 | 1026.4 |
| 20260906095106 | 22 | 7 | 9.7 | 17.7 | 0.00 | 0.00 | 0.00 | 44 | 1026.5 |
| 20260906094107 | 22 | 10 | 3.2 | 16.1 | 0.00 | 0.00 | 0.00 | 46 | 1026.6 |
| 20260906093606 | 22 | 266 | 3.2 | 24.1 | 0.00 | 0.00 | 0.00 | 46 | 1026.6 |
| 20260906093108 | 22 | 341 | 6.4 | 24.1 | 0.00 | 0.00 | 0.00 | 46 | 1026.8 |
| 20260906092608 | 23 | 14 | 8.0 | 14.5 | 0.00 | 0.00 | 0.00 | 44 | 1026.7 |
| 20260906092107 | 22 | 1 | 6.4 | 16.1 | 0.00 | 0.00 | 0.00 | 45 | 1026.5 |
| 20260906091607 | 22 | 301 | 3.2 | 16.1 | 0.00 | 0.00 | 0.00 | 47 | 1026.7 |
| 20260906091107 | 22 | 252 | 3.2 | 12.9 | 0.00 | 0.00 | 0.00 | 45 | 1027.0 |
| 20260906090608 | 22 | 346 | 3.2 | 14.5 | 0.00 | 0.00 | 0.00 | 47 | 1026.7 |
| 20260906090107 | 21 | 244 | 4.8 | 14.5 | 0.00 | 0.00 | 0.00 | 48 | 1027.1 |
| 20260906085108 | 21 | 2 | 6.4 | 19.3 | 0.00 | 0.00 | 0.00 | 50 | 1026.7 |
| 20260906084607 | 22 | 56 | 3.2 | 14.5 | 0.00 | 0.00 | 0.00 | 48 | 1026.7 |
| 20260906084107 | 21 | 182 | 1.6 | 16.1 | 0.00 | 0.00 | 0.00 | 49 | 1026.7 |
| 20260906083607 | 21 | 345 | 3.2 | 16.1 | 0.00 | 0.00 | 0.00 | 49 | 1026.6 |
| 20260906083107 | 21 | 0 | 9.7 | 30.6 | 0.00 | 0.00 | 0.00 | 49 | 1026.6 |
| 20260906082108 | 21 | 358 | 9.7 | 17.7 | 0.00 | 0.00 | 0.00 | 50 | 1026.6 |
| 20260906081607 | 21 | 332 | 3.2 | 17.7 | 0.00 | 0.03 | 0.00 | 50 | 1026.4 |
| 20260906080107 | 21 | 9 | 1.6 | 11.3 | 0.00 | 0.03 | 0.00 | 50 | 1026.7 |
| 20260906075607 | 20 | 351 | 3.2 | 16.1 | 0.00 | 0.03 | 0.00 | 52 | 1026.6 |
| 20260906074606 | 20 | 358 | 3.2 | 20.9 | 0.00 | 0.03 | 0.00 | 52 | 1026.5 |
| 20260906073607 | 20 | 349 | 6.4 | 12.9 | 0.00 | 0.03 | 0.00 | 52 | 1026.3 |
| 20260906073107 | 20 | 350 | 6.4 | 12.9 | 0.00 | 0.03 | 0.00 | 52 | 1026.6 |
| 20260906072607 | 20 | 0 | 3.2 | 11.3 | 0.00 | 0.05 | 0.00 | 53 | 1026.2 |
| 20260906072107 | 20 | 349 | 3.2 | 12.9 | 0.00 | 0.05 | 0.00 | 54 | 1026.1 |
| 20260906071607 | 19 | 356 | 6.4 | 14.5 | 0.00 | 0.05 | 0.00 | 54 | 1026.4 |
| 20260906071107 | 19 | 0 | 4.8 | 14.5 | 0.00 | 0.05 | 0.00 | 55 | 1026.4 |
| 20260906070607 | 20 | 346 | 0.0 | 9.7 | 0.00 | 0.05 | 0.00 | 54 | 1026.2 |
| 20260906070107 | 19 | 111 | 0.0 | 8.0 | 0.00 | 0.05 | 0.00 | 55 | 1026.0 |
| 20260906065607 | 19 | 6 | 4.8 | 14.5 | 0.00 | 0.05 | 0.00 | 55 | 1025.9 |
| 20260906065108 | 18 | 269 | 4.8 | 14.5 | 0.00 | 0.05 | 0.00 | 57 | 1026.1 |
| 20260906064607 | 18 | 345 | 3.2 | 11.3 | 0.00 | 0.05 | 0.00 | 57 | 1026.3 |
| 20260906064107 | 18 | 14 | 3.2 | 14.5 | 0.00 | 0.05 | 0.00 | 58 | 1025.9 |
| 20260906063608 | 17 | 299 | 1.6 | 14.5 | 0.00 | 0.05 | 0.00 | 59 | 1026.0 |
| 20260906063108 | 17 | 310 | 4.8 | 12.9 | 0.00 | 0.08 | 0.00 | 59 | 1026.0 |
| 20260906062607 | 17 | 355 | 3.2 | 12.9 | 0.00 | 0.08 | 0.00 | 60 | 1025.9 |
| 20260906062108 | 17 | 1 | 9.7 | 12.9 | 0.00 | 0.08 | 0.00 | 60 | 1025.9 |
| 20260906061608 | 17 | 296 | 4.8 | 12.9 | 0.00 | 0.08 | 0.00 | 61 | 1026.0 |
| 20260906061107 | 17 | 356 | 6.4 | 14.5 | 0.00 | 0.08 | 0.00 | 61 | 1026.0 |
| 20260906060607 | 16 | 9 | 12.9 | 14.5 | 0.00 | 0.08 | 0.00 | 61 | 1025.9 |
| 20260906060107 | 16 | 333 | 6.4 | 9.7 | 0.00 | 0.08 | 0.00 | 61 | 1026.1 |
| 20260906055607 | 16 | 0 | 1.6 | 11.3 | 0.00 | 0.08 | 0.00 | 61 | 1025.7 |
| 20260906055107 | 16 | 318 | 3.2 | 11.3 | 0.00 | 0.08 | 0.00 | 62 | 1025.5 |
| 20260906054607 | 16 | 335 | 3.2 | 9.7 | 0.00 | 0.08 | 0.00 | 64 | 1025.5 |
| 20260906054108 | 16 | 350 | 3.2 | 11.3 | 0.00 | 0.08 | 0.00 | 65 | 1025.5 |
| 20260906053108 | 15 | 8 | 6.4 | 9.7 | 0.00 | 0.13 | 0.00 | 65 | 1025.5 |
| 20260906052107 | 15 | 93 | 0.0 | 11.3 | 0.00 | 0.18 | 0.00 | 66 | 1025.8 |
| 20260906051607 | 15 | 212 | 1.6 | 11.3 | 0.00 | 0.18 | 0.00 | 67 | 1025.6 |
| 20260906051107 | 15 | 42 | 3.2 | 6.4 | 0.00 | 0.18 | 0.00 | 68 | 1025.2 |
| 20260906050607 | 14 | 347 | 0.0 | 8.0 | 0.00 | 0.18 | 0.00 | 69 | 1025.4 |
| 20260906050107 | 14 | 13 | 0.0 | 8.0 | 0.00 | 0.18 | 0.00 | 69 | 1025.3 |
| 20260906045607 | 13 | 89 | 0.0 | 4.8 | 0.00 | 0.18 | 0.00 | 70 | 1025.2 |
| 20260906045107 | 13 | 259 | 0.0 | 4.8 | 0.00 | 0.18 | 0.00 | 71 | 1025.3 |
| 20260906044607 | 13 | 297 | 1.6 | 3.2 | 0.00 | 0.18 | 0.00 | 73 | 1025.2 |
| 20260906043607 | 13 | 343 | 0.0 | 6.4 | 0.00 | 0.18 | 0.00 | 72 | 1025.3 |
| 20260906043107 | 13 | 324 | 3.2 | 6.4 | 0.00 | 0.18 | 0.00 | 71 | 1025.2 |
| 20260906042607 | 13 | 0 | 3.2 | 6.4 | 0.00 | 0.18 | 0.00 | 72 | 1024.9 |
| 20260906042107 | 13 | 3 | 3.2 | 6.4 | 0.00 | 0.18 | 0.00 | 71 | 1024.9 |
| 20260906041607 | 13 | 351 | 3.2 | 6.4 | 0.00 | 0.18 | 0.00 | 71 | 1024.8 |
| 20260906041108 | 13 | 332 | 3.2 | 8.0 | 0.00 | 0.18 | 0.00 | 71 | 1024.8 |
| 20260906040107 | 13 | 10 | 3.2 | 6.4 | 0.00 | 0.18 | 0.00 | 71 | 1024.8 |
| 20260906035607 | 13 | 4 | 3.2 | 4.8 | 0.00 | 0.18 | 0.00 | 71 | 1024.8 |
| 20260906035107 | 13 | 24 | 1.6 | 6.4 | 0.00 | 0.18 | 0.00 | 71 | 1024.7 |
| 20260906034607 | 13 | 33 | 3.2 | 6.4 | 0.00 | 0.18 | 0.00 | 71 | 1024.8 |
| 20260906034107 | 13 | 33 | 3.2 | 4.8 | 0.00 | 0.18 | 0.00 | 71 | 1024.8 |
| 20260906033607 | 13 | 59 | 3.2 | 4.8 | 0.00 | 0.18 | 0.00 | 70 | 1024.9 |
| 20260906033106 | 13 | 357 | 3.2 | 4.8 | 0.00 | 0.18 | 0.00 | 70 | 1024.7 |
| 20260906032607 | 13 | 7 | 3.2 | 4.8 | 0.00 | 0.18 | 0.00 | 69 | 1024.6 |
| 20260906032107 | 13 | 346 | 0.0 | 4.8 | 0.00 | 0.18 | 0.00 | 69 | 1024.7 |
| 20260906031607 | 14 | 25 | 0.0 | 6.4 | 0.00 | 0.18 | 0.00 | 69 | 1024.5 |
| 20260906031108 | 14 | 16 | 3.2 | 6.4 | 0.00 | 0.18 | 0.00 | 68 | 1024.9 |
| 20260906030607 | 14 | 37 | 1.6 | 6.4 | 0.00 | 0.18 | 0.00 | 68 | 1024.8 |
| 20260906030107 | 14 | 27 | 0.0 | 6.4 | 0.00 | 0.18 | 0.00 | 68 | 1024.8 |
| 20260906025607 | 14 | 329 | 4.8 | 6.4 | 0.00 | 0.18 | 0.00 | 67 | 1024.5 |
| 20260906025107 | 15 | 4 | 0.0 | 6.4 | 0.00 | 0.18 | 0.00 | 67 | 1024.5 |
| 20260906024607 | 15 | 49 | 1.6 | 6.4 | 0.00 | 0.18 | 0.00 | 67 | 1024.6 |
| 20260906024107 | 15 | 22 | 3.2 | 6.4 | 0.00 | 0.18 | 0.00 | 67 | 1024.5 |
| 20260906023607 | 15 | 25 | 0.0 | 6.4 | 0.00 | 0.18 | 0.00 | 67 | 1024.1 |
| 20260906023106 | 15 | 279 | 0.0 | 6.4 | 0.00 | 0.18 | 0.00 | 67 | 1024.3 |
| 20260906022607 | 15 | 274 | 4.8 | 6.4 | 0.00 | 0.18 | 0.00 | 66 | 1024.3 |
| 20260906021607 | 15 | 20 | 3.2 | 6.4 | 0.00 | 0.18 | 0.00 | 67 | 1024.2 |
| 20260906021107 | 15 | 337 | 0.0 | 6.4 | 0.00 | 0.18 | 0.00 | 67 | 1024.4 |
| 20260906020607 | 15 | 324 | 0.0 | 6.4 | 0.00 | 0.18 | 0.00 | 67 | 1024.4 |
| 20260906020107 | 15 | 13 | 0.0 | 4.8 | 0.00 | 0.18 | 0.00 | 66 | 1024.3 |
| 20260906015610 | 15 | 341 | 0.0 | 6.4 | 0.00 | 0.18 | 0.00 | 66 | 1024.1 |
| 20260906015110 | 15 | 16 | 0.0 | 6.4 | 0.00 | 0.18 | 0.00 | 66 | 1024.2 |
| 20260906014610 | 15 | 340 | 0.0 | 6.4 | 0.00 | 0.18 | 0.00 | 66 | 1024.1 |
| 20260906014111 | 15 | 357 | 1.6 | 6.4 | 0.00 | 0.18 | 0.00 | 66 | 1024.3 |
| 20260906013609 | 15 | 316 | 0.0 | 6.4 | 0.00 | 0.18 | 0.00 | 66 | 1024.1 |
| 20260906013110 | 15 | 349 | 1.6 | 6.4 | 0.00 | 0.18 | 0.00 | 66 | 1024.0 |
| 20260906012610 | 15 | 20 | 3.2 | 6.4 | 0.00 | 0.18 | 0.00 | 66 | 1023.9 |
| 20260906012110 | 15 | 339 | 3.2 | 6.4 | 0.00 | 0.18 | 0.00 | 66 | 1023.8 |
| 20260906011610 | 15 | 273 | 3.2 | 8.0 | 0.00 | 0.18 | 0.00 | 67 | 1023.9 |
| 20260906011110 | 15 | 254 | 0.0 | 8.0 | 0.00 | 0.18 | 0.00 | 67 | 1024.0 |
| 20260906010111 | 15 | 302 | 0.0 | 4.8 | 0.00 | 0.18 | 0.00 | 67 | 1023.8 |
| 20260906005610 | 15 | 358 | 1.6 | 4.8 | 0.00 | 0.18 | 0.00 | 66 | 1024.0 |
| 20260906005110 | 15 | 348 | 3.2 | 4.8 | 0.00 | 0.18 | 0.00 | 66 | 1023.8 |
| 20260906004609 | 15 | 28 | 4.8 | 4.8 | 0.00 | 0.18 | 0.00 | 66 | 1023.8 |
| 20260906004122 | 15 | 341 | 1.6 | 4.8 | 0.00 | 0.18 | 0.00 | 66 | 1023.7 |
| 20260906003610 | 15 | 31 | 1.6 | 4.8 | 0.00 | 0.18 | 0.00 | 65 | 1023.7 |
| 20260906003110 | 15 | 32 | 3.2 | 4.8 | 0.00 | 0.18 | 0.00 | 66 | 1023.8 |
| 20260906002610 | 15 | 58 | 1.6 | 6.4 | 0.00 | 0.18 | 0.00 | 66 | 1023.7 |
| 20260906002111 | 15 | 300 | 3.2 | 6.4 | 0.00 | 0.18 | 0.00 | 66 | 1023.8 |
| 20260906001622 | 15 | 260 | 0.0 | 4.8 | 0.00 | 0.18 | 0.00 | 66 | 1023.6 |
| 20260906001109 | 15 | 14 | 0.0 | 6.4 | 0.00 | 0.18 | 0.00 | 67 | 1023.5 |
| 20260906000609 | 15 | 349 | 3.2 | 6.4 | 0.00 | 0.18 | 0.00 | 67 | 1023.3 |
| 20260905235610 | 15 | 336 | 0.0 | 3.2 | 0.00 | 0.18 | 0.00 | 67 | 1023.3 |
| 20260905235110 | 15 | 28 | 0.0 | 3.2 | 0.00 | 0.18 | 0.00 | 68 | 1023.3 |
| 20260905234610 | 15 | 5 | 0.0 | 3.2 | 0.00 | 0.18 | 0.00 | 67 | 1023.4 |
| 20260905234109 | 16 | 311 | 0.0 | 4.8 | 0.00 | 0.18 | 0.00 | 66 | 1023.2 |
| 20260905233611 | 16 | 15 | 0.0 | 4.8 | 0.00 | 0.18 | 0.00 | 66 | 1023.1 |
| 20260905233111 | 16 | 32 | 0.0 | 3.2 | 0.00 | 0.18 | 0.00 | 66 | 1023.5 |
| 20260905232610 | 16 | 265 | 1.6 | 4.8 | 0.00 | 0.18 | 0.00 | 65 | 1023.4 |
| 20260905232110 | 16 | 15 | 3.2 | 4.8 | 0.00 | 0.18 | 0.00 | 64 | 1023.2 |
| 20260905231610 | 16 | 15 | 0.0 | 4.8 | 0.00 | 0.18 | 0.00 | 63 | 1023.3 |
| 20260905230610 | 17 | 18 | 1.6 | 8.0 | 0.00 | 0.18 | 0.00 | 62 | 1022.9 |
| 20260905230121 | 17 | 33 | 3.2 | 8.0 | 0.00 | 0.18 | 0.00 | 62 | 1023.1 |
| 20260905225610 | 17 | 3 | 3.2 | 8.0 | 0.00 | 0.18 | 0.00 | 62 | 1023.1 |
| 20260905225110 | 17 | 23 | 4.8 | 9.7 | 0.00 | 0.18 | 0.00 | 62 | 1023.0 |
| 20260905224612 | 17 | 16 | 1.6 | 9.7 | 0.00 | 0.18 | 0.00 | 62 | 1023.1 |
| 20260905224110 | 17 | 328 | 3.2 | 9.7 | 0.00 | 0.18 | 0.00 | 62 | 1022.9 |
| 20260905223610 | 16 | 322 | 3.2 | 6.4 | 0.00 | 0.18 | 0.00 | 65 | 1022.8 |
| 20260905222610 | 16 | 0 | 3.2 | 3.2 | 0.00 | 0.18 | 0.00 | 68 | 1022.8 |
| 20260905222111 | 16 | 358 | 3.2 | 4.8 | 0.00 | 0.18 | 0.00 | 68 | 1023.0 |
| 20260905221610 | 16 | 298 | 1.6 | 6.4 | 0.00 | 0.18 | 0.00 | 69 | 1022.8 |
| 20260905220611 | 17 | 230 | 0.0 | 4.8 | 0.00 | 0.18 | 0.00 | 69 | 1022.7 |
| 20260905220117 | 17 | 22 | 3.2 | 4.8 | 0.00 | 0.18 | 0.00 | 69 | 1022.7 |
| 20260905215111 | 17 | 6 | 3.2 | 9.7 | 0.00 | 0.18 | 0.18 | 67 | 1022.4 |
| 20260905214610 | 17 | 15 | 3.2 | 9.7 | 0.00 | 0.18 | 0.18 | 66 | 1022.8 |
| 20260905213610 | 18 | 7 | 1.6 | 11.3 | 0.00 | 0.18 | 0.18 | 65 | 1022.3 |
| 20260905213111 | 18 | 11 | 8.0 | 11.3 | 0.00 | 0.18 | 0.18 | 65 | 1022.2 |
| 20260905211610 | 18 | 324 | 4.8 | 9.7 | 0.00 | 0.18 | 0.18 | 65 | 1022.2 |
| 20260905210110 | 18 | 286 | 1.6 | 6.4 | 0.00 | 0.18 | 0.18 | 65 | 1021.7 |
| 20260905205610 | 18 | 15 | 3.2 | 8.0 | 0.00 | 0.18 | 0.18 | 66 | 1021.8 |
| 20260905204611 | 18 | 128 | 3.2 | 9.7 | 0.00 | 0.18 | 0.18 | 66 | 1021.5 |
| 20260905203610 | 18 | 0 | 3.2 | 6.4 | 0.00 | 0.18 | 0.18 | 66 | 1021.4 |
| 20260905203110 | 18 | 3 | 6.4 | 6.4 | 0.00 | 0.18 | 0.18 | 66 | 1021.5 |
| 20260905202609 | 18 | 323 | 1.6 | 8.0 | 0.00 | 0.18 | 0.18 | 65 | 1021.5 |
| 20260905201622 | 19 | 225 | 3.2 | 9.7 | 0.00 | 0.18 | 0.18 | 64 | 1021.3 |
| 20260905201110 | 19 | 236 | 3.2 | 9.7 | 0.00 | 0.18 | 0.18 | 63 | 1021.4 |
| 20260905200610 | 19 | 236 | 3.2 | 9.7 | 0.00 | 0.18 | 0.18 | 63 | 1021.5 |
| 20260905200115 | 19 | 277 | 4.8 | 9.7 | 0.00 | 0.18 | 0.18 | 62 | 1021.3 |
| 20260905195610 | 19 | 267 | 1.6 | 8.0 | 0.00 | 0.18 | 0.18 | 61 | 1021.4 |
| 20260905195110 | 19 | 235 | 6.4 | 8.0 | 0.00 | 0.18 | 0.18 | 60 | 1021.1 |
| 20260905194610 | 19 | 238 | 0.0 | 8.0 | 0.00 | 0.18 | 0.18 | 59 | 1021.2 |
| 20260905194110 | 19 | 214 | 0.0 | 8.0 | 0.00 | 0.18 | 0.18 | 58 | 1020.9 |
| 20260905193609 | 19 | 241 | 4.8 | 8.0 | 0.00 | 0.18 | 0.18 | 58 | 1021.0 |
| 20260905193110 | 19 | 253 | 1.6 | 6.4 | 0.00 | 0.18 | 0.18 | 57 | 1021.0 |
| 20260905192610 | 19 | 233 | 4.8 | 6.4 | 0.00 | 0.18 | 0.18 | 56 | 1021.0 |
| 20260905192112 | 19 | 225 | 1.6 | 4.8 | 0.00 | 0.18 | 0.18 | 56 | 1021.0 |
| 20260905191610 | 20 | 1 | 1.6 | 4.8 | 0.00 | 0.18 | 0.18 | 56 | 1020.9 |
| 20260905191110 | 20 | 242 | 0.0 | 4.8 | 0.00 | 0.18 | 0.18 | 55 | 1021.0 |
| 20260905190610 | 20 | 11 | 3.2 | 9.7 | 0.00 | 0.18 | 0.18 | 55 | 1020.8 |
| 20260905190110 | 20 | 187 | 1.6 | 9.7 | 0.00 | 0.18 | 0.18 | 54 | 1020.8 |
| 20260905185609 | 20 | 317 | 1.6 | 4.8 | 0.00 | 0.18 | 0.18 | 54 | 1020.6 |
| 20260905185110 | 20 | 284 | 4.8 | 6.4 | 0.00 | 0.18 | 0.18 | 53 | 1020.7 |
| 20260905184627 | 20 | 240 | 3.2 | 9.7 | 0.00 | 0.18 | 0.18 | 53 | 1020.8 |
| 20260905183611 | 20 | 212 | 3.2 | 6.4 | 0.00 | 0.18 | 0.18 | 52 | 1020.5 |
| 20260905183111 | 20 | 262 | 3.2 | 6.4 | 0.00 | 0.18 | 0.18 | 52 | 1020.4 |
| 20260905182610 | 20 | 24 | 1.6 | 6.4 | 0.00 | 0.18 | 0.18 | 52 | 1020.4 |
| 20260905181610 | 21 | 187 | 0.0 | 8.0 | 0.00 | 0.18 | 0.18 | 52 | 1020.1 |
| 20260905181110 | 21 | 247 | 1.6 | 8.0 | 0.00 | 0.18 | 0.18 | 52 | 1020.1 |
| 20260905180610 | 21 | 266 | 6.4 | 8.0 | 0.00 | 0.18 | 0.18 | 51 | 1020.3 |
| 20260905180110 | 21 | 235 | 1.6 | 6.4 | 0.00 | 0.18 | 0.18 | 51 | 1020.0 |
| 20260905175612 | 21 | 240 | 3.2 | 6.4 | 0.00 | 0.18 | 0.18 | 50 | 1019.9 |
| 20260905175110 | 21 | 314 | 3.2 | 6.4 | 0.00 | 0.18 | 0.18 | 50 | 1019.8 |
| 20260905174610 | 21 | 285 | 4.8 | 6.4 | 0.00 | 0.18 | 0.18 | 49 | 1019.7 |
| 20260905174110 | 21 | 257 | 3.2 | 11.3 | 0.00 | 0.18 | 0.18 | 49 | 1019.7 |
| 20260905173609 | 22 | 21 | 3.2 | 11.3 | 0.00 | 0.18 | 0.18 | 48 | 1019.6 |
| 20260905173110 | 22 | 301 | 4.8 | 11.3 | 0.00 | 0.18 | 0.18 | 48 | 1019.6 |
| 20260905172610 | 22 | 264 | 4.8 | 9.7 | 0.00 | 0.18 | 0.18 | 48 | 1019.7 |
| 20260905172123 | 22 | 308 | 4.8 | 9.7 | 0.00 | 0.18 | 0.18 | 48 | 1019.6 |
| 20260905171610 | 22 | 262 | 4.8 | 8.0 | 0.00 | 0.18 | 0.18 | 47 | 1019.6 |
| 20260905171110 | 22 | 256 | 4.8 | 6.4 | 0.00 | 0.18 | 0.18 | 47 | 1019.3 |
| 20260905170610 | 22 | 323 | 1.6 | 6.4 | 0.00 | 0.18 | 0.18 | 47 | 1019.4 |
| 20260905170116 | 22 | 263 | 3.2 | 6.4 | 0.00 | 0.18 | 0.18 | 47 | 1019.5 |
| 20260905165622 | 22 | 317 | 1.6 | 9.7 | 0.00 | 0.18 | 0.18 | 46 | 1019.7 |
| 20260905165109 | 23 | 351 | 1.6 | 14.5 | 0.00 | 0.18 | 0.18 | 46 | 1019.4 |
| 20260905164612 | 23 | 288 | 3.2 | 14.5 | 0.00 | 0.18 | 0.18 | 45 | 1019.5 |
| 20260905164110 | 23 | 260 | 6.4 | 17.7 | 0.00 | 0.18 | 0.18 | 44 | 1019.4 |
| 20260905163610 | 23 | 262 | 3.2 | 17.7 | 0.00 | 0.18 | 0.18 | 43 | 1019.4 |
| 20260905162610 | 24 | 23 | 4.8 | 14.5 | 0.00 | 0.18 | 0.18 | 42 | 1019.3 |
| 20260905162109 | 24 | 227 | 8.0 | 19.3 | 0.00 | 0.18 | 0.18 | 42 | 1019.4 |
| 20260905161610 | 24 | 329 | 8.0 | 19.3 | 0.00 | 0.18 | 0.18 | 42 | 1019.3 |
| 20260905161110 | 24 | 271 | 3.2 | 19.3 | 0.00 | 0.18 | 0.18 | 41 | 1019.0 |
| 20260905160610 | 24 | 242 | 8.0 | 19.3 | 0.00 | 0.18 | 0.18 | 42 | 1019.1 |
| 20260905155609 | 25 | 306 | 3.2 | 14.5 | 0.00 | 0.18 | 0.18 | 42 | 1019.2 |
| 20260905155111 | 25 | 226 | 4.8 | 14.5 | 0.00 | 0.18 | 0.18 | 43 | 1019.3 |
| 20260905154610 | 25 | 10 | 3.2 | 20.9 | 0.00 | 0.18 | 0.18 | 42 | 1018.9 |
| 20260905154110 | 25 | 343 | 3.2 | 20.9 | 0.00 | 0.18 | 0.18 | 43 | 1019.1 |
| 20260905153611 | 25 | 218 | 6.4 | 24.1 | 0.00 | 0.18 | 0.18 | 42 | 1019.2 |
| 20260905153110 | 25 | 216 | 0.0 | 24.1 | 0.00 | 0.18 | 0.18 | 43 | 1018.9 |
| 20260905152610 | 25 | 299 | 6.4 | 17.7 | 0.00 | 0.18 | 0.18 | 42 | 1018.9 |
| 20260905152110 | 25 | 348 | 3.2 | 17.7 | 0.00 | 0.18 | 0.18 | 42 | 1019.1 |
| 20260905151610 | 25 | 39 | 4.8 | 14.5 | 0.00 | 0.18 | 0.18 | 41 | 1018.9 |
| 20260905151111 | 25 | 236 | 4.8 | 14.5 | 0.00 | 0.18 | 0.18 | 41 | 1019.1 |
| 20260905150610 | 25 | 331 | 3.2 | 22.5 | 0.00 | 0.18 | 0.18 | 42 | 1019.1 |
| 20260905150111 | 25 | 344 | 6.4 | 22.5 | 0.00 | 0.18 | 0.18 | 43 | 1019.0 |
| 20260905145610 | 25 | 221 | 8.0 | 12.9 | 0.00 | 0.18 | 0.18 | 42 | 1018.9 |
| 20260905145110 | 25 | 260 | 6.4 | 16.1 | 0.00 | 0.18 | 0.18 | 42 | 1018.9 |
| 20260905144610 | 25 | 296 | 9.7 | 16.1 | 0.00 | 0.18 | 0.18 | 43 | 1018.9 |
| 20260905143610 | 25 | 267 | 9.7 | 17.7 | 0.00 | 0.18 | 0.18 | 42 | 1018.8 |
| 20260905143112 | 25 | 280 | 6.4 | 20.9 | 0.00 | 0.18 | 0.18 | 42 | 1018.7 |
| 20260905142610 | 25 | 274 | 11.3 | 20.9 | 0.00 | 0.18 | 0.18 | 43 | 1019.1 |
| 20260905142110 | 25 | 340 | 8.0 | 20.9 | 0.00 | 0.18 | 0.18 | 43 | 1018.8 |
| 20260905141610 | 25 | 229 | 4.8 | 20.9 | 0.00 | 0.18 | 0.18 | 43 | 1018.7 |
| 20260905141122 | 25 | 328 | 6.4 | 17.7 | 0.00 | 0.18 | 0.18 | 42 | 1018.8 |
| 20260905140118 | 25 | 277 | 6.4 | 19.3 | 0.00 | 0.18 | 0.18 | 41 | 1018.8 |
| 20260905135610 | 25 | 250 | 9.7 | 27.4 | 0.00 | 0.18 | 0.18 | 42 | 1019.0 |
| 20260905135110 | 25 | 320 | 6.4 | 27.4 | 0.00 | 0.18 | 0.18 | 43 | 1018.8 |
| 20260905134610 | 25 | 237 | 9.7 | 24.1 | 0.00 | 0.18 | 0.18 | 42 | 1018.9 |
| 20260905134110 | 25 | 316 | 12.9 | 24.1 | 0.00 | 0.18 | 0.18 | 43 | 1019.1 |
| 20260905133611 | 25 | 243 | 9.7 | 20.9 | 0.00 | 0.18 | 0.18 | 43 | 1019.0 |
| 20260905132611 | 25 | 337 | 9.7 | 19.3 | 0.00 | 0.18 | 0.18 | 43 | 1019.3 |
| 20260905132110 | 26 | 315 | 3.2 | 19.3 | 0.00 | 0.18 | 0.18 | 43 | 1019.4 |
| 20260905131610 | 26 | 211 | 4.8 | 16.1 | 0.00 | 0.18 | 0.18 | 42 | 1019.1 |
| 20260905131110 | 25 | 269 | 4.8 | 14.5 | 0.00 | 0.18 | 0.18 | 44 | 1019.1 |
| 20260905130116 | 25 | 266 | 4.8 | 14.5 | 0.00 | 0.18 | 0.18 | 42 | 1019.3 |
| 20260905125611 | 25 | 307 | 6.4 | 16.1 | 0.00 | 0.18 | 0.18 | 45 | 1019.3 |
| 20260905125110 | 25 | 287 | 1.6 | 16.1 | 0.00 | 0.18 | 0.18 | 45 | 1019.5 |
| 20260905124111 | 25 | 280 | 6.4 | 17.7 | 0.00 | 0.18 | 0.18 | 44 | 1019.5 |
| 20260905123610 | 25 | 280 | 4.8 | 17.7 | 0.00 | 0.18 | 0.18 | 44 | 1019.5 |
| 20260905123110 | 25 | 262 | 3.2 | 19.3 | 0.00 | 0.18 | 0.18 | 44 | 1019.0 |
| 20260905122111 | 25 | 293 | 8.0 | 17.7 | 0.00 | 0.18 | 0.18 | 44 | 1019.4 |
| 20260905121610 | 26 | 337 | 14.5 | 17.7 | 0.00 | 0.18 | 0.18 | 42 | 1019.3 |
| 20260905120611 | 25 | 269 | 9.7 | 19.3 | 0.00 | 0.18 | 0.18 | 44 | 1019.4 |
| 20260905120115 | 26 | 299 | 8.0 | 19.3 | 0.00 | 0.18 | 0.18 | 45 | 1019.2 |
| 20260905115610 | 25 | 359 | 4.8 | 17.7 | 0.00 | 0.18 | 0.18 | 46 | 1019.3 |
| 20260905115110 | 25 | 3 | 12.9 | 20.9 | 0.00 | 0.18 | 0.18 | 47 | 1019.4 |
| 20260905114612 | 25 | 241 | 4.8 | 20.9 | 0.00 | 0.18 | 0.18 | 47 | 1019.4 |
| 20260905114111 | 25 | 287 | 9.7 | 19.3 | 0.00 | 0.18 | 0.18 | 46 | 1019.3 |
| 20260905113610 | 25 | 260 | 0.0 | 20.9 | 0.00 | 0.18 | 0.18 | 49 | 1019.5 |
| 20260905113110 | 24 | 288 | 8.0 | 20.9 | 0.00 | 0.18 | 0.18 | 50 | 1019.3 |
| 20260905112610 | 25 | 316 | 11.3 | 16.1 | 0.00 | 0.18 | 0.18 | 49 | 1019.4 |
| 20260905111609 | 23 | 293 | 6.4 | 12.9 | 0.00 | 0.18 | 0.18 | 53 | 1019.6 |
| 20260905111110 | 24 | 7 | 9.7 | 11.3 | 0.00 | 0.18 | 0.18 | 56 | 1019.6 |
| 20260905110610 | 23 | 229 | 0.0 | 11.3 | 0.00 | 0.18 | 0.18 | 58 | 1019.6 |
| 20260905110118 | 24 | 37 | 3.2 | 11.3 | 0.00 | 0.18 | 0.18 | 57 | 1019.5 |
| 20260905105610 | 24 | 262 | 4.8 | 14.5 | 0.00 | 0.18 | 0.18 | 59 | 1019.5 |
| 20260905104622 | 23 | 205 | 4.8 | 14.5 | 0.00 | 0.18 | 0.18 | 66 | 1019.7 |
| 20260905104112 | 23 | 291 | 3.2 | 14.5 | 0.00 | 0.18 | 0.18 | 66 | 1019.7 |
| 20260905103110 | 22 | 67 | 3.2 | 19.3 | 0.00 | 0.18 | 0.18 | 72 | 1019.6 |
| 20260905102110 | 22 | 244 | 9.7 | 16.1 | 0.00 | 0.18 | 0.18 | 68 | 1019.8 |
| 20260905101611 | 22 | 207 | 6.4 | 19.3 | 0.00 | 0.18 | 0.18 | 69 | 1020.1 |